Weather History for KCBK - August, 2013

Change the Weather History Date:

Thursday, August 22, 2013

  Actual Average (KGLD) Record (KGLD)
Temperature  
Mean Temperature 74 °F 73 °F  
Max Temperature 89 °F 87 °F 102 °F (1938)
Min Temperature 60 °F 59 °F 45 °F (1945)
Degree Days  
Heating Degree Days 0 0  
Month to date heating degree days 0  
Since 1 June heating degree days 41  
Since 1 July heating degree days 4  
Cooling Degree Days 10 8  
Month to date cooling degree days 211  
Year to date cooling degree days 765  
Since 1 June cooling degree days 724  
Growing Degree Days 24 (Base 50)    
Moisture  
Dew Point 62 °F    
Average Humidity 64    
Maximum Humidity 94    
Minimum Humidity 38    
Precipitation  
Precipitation 0.00 in 0.07 in 0.61 in (2014)
Month to date precipitation 2.09  
Year to date precipitation 15.29  
Snow  
Snow 0.00 in 0.00 in - ()
Month to date snowfall 0.0  
Since 1 June snowfall 0.0  
Since 1 July snowfall 0.0  
Snow Depth -    
Sea Level Pressure  
Sea Level Pressure 30.05 in    
Wind  
Wind Speed 9 mph (NE)    
Max Wind Speed 18 mph    
Max Gust Speed 20 mph    
Visibility 10 miles    
Events      
T = Trace of Precipitation, MM = Missing Value Source: NWS Daily Summary

Daily Weather History Graph

Daily Weather History Graph

Search for Another Location

Airport or City:

Trip Planner

Search our weather history database for the weather conditions in past years. The results will help you decide how hot, cold, wet, or windy it might be!

Date:

Astronomy

Aug. 22, 2013 Rise Set
Actual Time 7:03 AM CDT 8:29 PM CDT
Civil Twilight 6:35 AM CDT 8:57 PM CDT
Nautical Twilight 6:01 AM CDT 9:31 PM CDT
Astronomical Twilight 5:25 AM CDT 10:07 PM CDT
Moon 9:15 PM CDT (8/22) 8:53 AM CDT (8/22)
Length of Visible Light 14h 22m
Length of Day
13h 26m
Waning Gibbous, 96% of the Moon is Illuminated
Aug 22
Waning Gibbous
Aug 28
Last Quarter
Sep 5
New
Sep 12
First Quarter
Sep 19
Full

Hourly Weather History & Observations

Time (CDT) Temp. Heat Index Dew Point Humidity Pressure Visibility Wind Dir Wind Speed Gust Speed Precip Events Conditions
12:15 AM 78.8 °F - 62.6 °F 57% 30.02 in 10.0 mi South 11.5 mph 18.4 mph N/A   Clear
12:35 AM 77.0 °F - 60.8 °F 57% 30.03 in 10.0 mi South 13.8 mph 19.6 mph N/A   Clear
12:55 AM 77.0 °F - 60.8 °F 57% 30.02 in 10.0 mi South 12.7 mph 19.6 mph N/A   Clear
1:15 AM 77.0 °F - 60.8 °F 57% 30.02 in 10.0 mi South 12.7 mph 18.4 mph N/A   Clear
1:35 AM 75.2 °F - 60.8 °F 61% 30.03 in 10.0 mi South 11.5 mph - N/A   Clear
1:55 AM 75.2 °F - 60.8 °F 61% 30.03 in 10.0 mi South 11.5 mph - N/A   Clear
2:15 AM 73.4 °F - 60.8 °F 65% 30.02 in 10.0 mi South 11.5 mph 17.3 mph N/A   Scattered Clouds
2:35 AM 73.4 °F - 60.8 °F 65% 30.02 in 10.0 mi South 10.4 mph 18.4 mph N/A   Scattered Clouds
2:55 AM 73.4 °F - 60.8 °F 65% 30.02 in 10.0 mi South 12.7 mph 19.6 mph N/A   Clear
3:15 AM 73.4 °F - 60.8 °F 65% 30.02 in 10.0 mi SSW 10.4 mph 17.3 mph N/A   Clear
3:35 AM 71.6 °F - 60.8 °F 69% 30.02 in 10.0 mi SSW 6.9 mph - N/A   Clear
3:55 AM 71.6 °F - 60.8 °F 69% 30.02 in 10.0 mi South 9.2 mph - N/A   Clear
4:15 AM 69.8 °F - 59.0 °F 68% 30.02 in 10.0 mi SSW 9.2 mph - N/A   Clear
4:35 AM 68.0 °F - 59.0 °F 73% 30.03 in 10.0 mi WSW 6.9 mph - N/A   Clear
4:55 AM 66.2 °F - 60.8 °F 83% 30.03 in 10.0 mi WSW 3.5 mph - N/A   Clear
5:15 AM 66.2 °F - 59.0 °F 78% 30.03 in 10.0 mi Calm Calm - N/A   Clear
5:35 AM 62.6 °F - 59.0 °F 88% 30.03 in 10.0 mi WSW 5.8 mph - N/A   Clear
5:55 AM 64.4 °F - 59.0 °F 83% 30.04 in 10.0 mi SSW 4.6 mph - N/A   Clear
6:15 AM 64.4 °F - 59.0 °F 83% 30.04 in 10.0 mi SW 3.5 mph - N/A   Clear
6:35 AM 60.8 °F - 59.0 °F 94% 30.04 in 10.0 mi West 3.5 mph - N/A   Clear
6:55 AM 60.8 °F - 59.0 °F 94% 30.04 in 10.0 mi Calm Calm - N/A   Clear
7:15 AM 60.8 °F - 59.0 °F 94% 30.04 in 10.0 mi SE 4.6 mph - N/A   Clear
7:35 AM 60.8 °F - 59.0 °F 94% 30.05 in 10.0 mi East 9.2 mph - N/A   Clear
7:55 AM 62.6 °F - 60.8 °F 94% 30.05 in 10.0 mi East 3.5 mph - N/A   Clear
8:15 AM 64.4 °F - 60.8 °F 88% 30.07 in 10.0 mi Calm Calm - N/A   Clear
8:35 AM 68.0 °F - 60.8 °F 78% 30.07 in 10.0 mi Calm Calm - N/A   Clear
8:55 AM 69.8 °F - 60.8 °F 73% 30.07 in 10.0 mi Calm Calm - N/A   Clear
9:15 AM 69.8 °F - 62.6 °F 78% 30.07 in 10.0 mi West 4.6 mph - N/A   Clear
9:35 AM 71.6 °F - 62.6 °F 73% 30.08 in 10.0 mi WNW 6.9 mph - N/A   Clear
9:55 AM 75.2 °F - 62.6 °F 65% 30.08 in 10.0 mi NW 6.9 mph - N/A   Clear
10:15 AM 77.0 °F - 62.6 °F 61% 30.07 in 10.0 mi NNW 11.5 mph - N/A   Clear
10:35 AM 75.2 °F - 60.8 °F 61% 30.08 in 10.0 mi NW 10.4 mph - N/A   Clear
10:55 AM 77.0 °F - 64.4 °F 65% 30.08 in 10.0 mi NW 13.8 mph - N/A   Clear
11:15 AM 77.0 °F - 64.4 °F 65% 30.08 in 10.0 mi NNW 11.5 mph - N/A   Clear
11:35 AM 77.0 °F - 64.4 °F 65% 30.09 in 10.0 mi NNW 10.4 mph - N/A   Clear
11:55 AM 78.8 °F - 64.4 °F 61% 30.09 in 10.0 mi NNW 10.4 mph - N/A   Clear
12:15 PM 78.8 °F - 62.6 °F 57% 30.09 in 10.0 mi NNE 11.5 mph - N/A   Clear
12:35 PM 80.6 °F 81.8 °F 62.6 °F 54% 30.09 in 10.0 mi NE 6.9 mph - N/A   Clear
12:55 PM 82.4 °F 82.9 °F 60.8 °F 48% 30.09 in 10.0 mi NNE 10.4 mph - N/A   Clear
1:15 PM 84.2 °F 83.8 °F 59.0 °F 42% 30.09 in 10.0 mi NE 5.8 mph - N/A   Clear
1:35 PM 86.0 °F 86.6 °F 62.6 °F 45% 30.08 in 10.0 mi NNE 11.5 mph - N/A   Clear
1:55 PM 86.0 °F 86.1 °F 60.8 °F 43% 30.08 in 10.0 mi NE 10.4 mph - N/A   Clear
2:15 PM 86.0 °F 86.6 °F 62.6 °F 45% 30.08 in 10.0 mi NNE 8.1 mph - N/A   Clear
2:35 PM 87.8 °F 87.6 °F 60.8 °F 40% 30.08 in 10.0 mi NE 8.1 mph 18.4 mph N/A   Clear
2:55 PM 86.0 °F 86.1 °F 60.8 °F 43% 30.07 in 10.0 mi NNE 6.9 mph - N/A   Clear
3:15 PM 87.8 °F 87.6 °F 60.8 °F 40% 30.07 in 10.0 mi Calm Calm - N/A   Clear
3:35 PM 89.6 °F 90.1 °F 62.6 °F 40% 30.07 in 10.0 mi NE 10.4 mph 19.6 mph N/A   Clear
3:55 PM 89.6 °F 89.5 °F 60.8 °F 38% 30.06 in 10.0 mi NE 5.8 mph - N/A   Clear
4:15 PM 87.8 °F 87.6 °F 60.8 °F 40% 30.06 in 10.0 mi East 6.9 mph - N/A   Clear
4:35 PM 87.8 °F 87.6 °F 60.8 °F 40% 30.05 in 10.0 mi ENE 9.2 mph - N/A   Clear
4:55 PM 89.6 °F 89.5 °F 60.8 °F 38% 30.04 in 10.0 mi NNE 6.9 mph - N/A   Clear
5:15 PM 89.6 °F 89.5 °F 60.8 °F 38% 30.04 in 10.0 mi NNE 6.9 mph - N/A   Clear
5:35 PM 89.6 °F 89.5 °F 60.8 °F 38% 30.03 in 10.0 mi ENE 11.5 mph - N/A   Clear
5:55 PM 89.6 °F 89.5 °F 60.8 °F 38% 30.03 in 10.0 mi NE 9.2 mph - N/A   Clear
6:15 PM 89.6 °F 89.5 °F 60.8 °F 38% 30.02 in 10.0 mi ENE 5.8 mph 10.4 mph N/A   Clear
6:35 PM 89.6 °F 89.5 °F 60.8 °F 38% 30.02 in 10.0 mi ENE 8.1 mph - N/A   Clear
6:55 PM 87.8 °F 88.5 °F 62.6 °F 43% 30.02 in 10.0 mi East 6.9 mph - N/A   Clear
7:15 PM 87.8 °F 88.5 °F 62.6 °F 43% 30.02 in 10.0 mi ENE 8.1 mph - N/A   Clear
7:35 PM 86.0 °F 86.6 °F 62.6 °F 45% 30.03 in 10.0 mi ENE 4.6 mph - N/A   Clear
7:55 PM 82.4 °F 85.4 °F 68.0 °F 62% 30.03 in 10.0 mi NNE 18.4 mph - N/A   Clear
8:15 PM 80.6 °F 83.2 °F 68.0 °F 65% 30.04 in 10.0 mi NE 16.1 mph - N/A   Clear
8:35 PM 78.8 °F - 68.0 °F 69% 30.05 in 10.0 mi NE 11.5 mph - N/A   Clear
8:55 PM 78.8 °F - 68.0 °F 69% 30.06 in 10.0 mi NE 11.5 mph - N/A   Clear
9:15 PM 77.0 °F - 68.0 °F 74% 30.07 in 10.0 mi NE 9.2 mph - N/A   Clear
9:35 PM 77.0 °F - 68.0 °F 74% 30.08 in 10.0 mi NE 13.8 mph 19.6 mph N/A   Clear
9:55 PM 75.2 °F - 68.0 °F 78% 30.08 in 10.0 mi NE 13.8 mph - N/A   Clear
10:15 PM 73.4 °F - 68.0 °F 83% 30.08 in 10.0 mi NE 13.8 mph - N/A   Clear
10:35 PM 73.4 °F - 68.0 °F 83% 30.08 in 10.0 mi NE 10.4 mph - N/A   Clear
10:55 PM 71.6 °F - 68.0 °F 88% 30.09 in 10.0 mi NE 10.4 mph - N/A   Clear
11:15 PM 71.6 °F - 68.0 °F 88% 30.09 in 10.0 mi NE 13.8 mph - N/A   Clear
11:35 PM 71.6 °F - 68.0 °F 88% 30.09 in 10.0 mi NNE 9.2 mph - N/A   Clear
11:55 PM 69.8 °F - 68.0 °F 94% 30.10 in 10.0 mi NNE 6.9 mph - N/A   Clear